Overview Statistics Trail Chart Weather Telemetry Raw packets
 

This is the latest recevied weather packets stored in our database for station/object NI4CE-10. If no packets are shown the sender has not sent any weather packets the latest 10 day(s).

<< 139 140 141 142 143 144 145 >>
Time Temp. Humidity Pressure Rain* Wind** Luminosity Snow
1787850720 28.89° C 100% 1019.5 hPa 0.51 mm - - -
1787850512 28.89° C 100% 1019.5 hPa 0.51 mm - - -
1787850354 30° C 100% 1019.5 hPa 0.51 mm - - -
1787850212 30° C 100% 1019.5 hPa 0.51 mm - - -
1787849912 30.56° C 100% 1019.3 hPa 0.51 mm - - -
1787849800 31.11° C 100% 1019.2 hPa 0.51 mm - - -
1787849612 31.11° C 100% 1019.2 hPa 0.51 mm - - -
1787849312 31.11° C 100% 1019.3 hPa 0.51 mm - - -
1787849181 31.11° C 100% 1019.3 hPa 0.51 mm - - -
1787849012 31.11° C 100% 1019.3 hPa 0.51 mm - - -
1787848900 31.67° C 100% 1019.3 hPa 0.51 mm - - -
1787848712 31.67° C 100% 1019.3 hPa 0.51 mm - - -
1787848412 30.56° C 100% 1019.3 hPa 0.51 mm - - -
1787848112 30.56° C 100% 1019.3 hPa 0.25 mm - - -
1787847908 34.44° C 100% 1019.3 hPa 0 mm - - -
1787847812 34.44° C 100% 1019.3 hPa 0 mm - - -
1787847512 37.22° C 100% 1019.4 hPa 0 mm - - -
1787847362 42.78° C 100% 1019.2 hPa 0 mm - - -
1787847212 42.78° C 100% 1019.2 hPa 0 mm - - -
1787846912 48.33° C 100% 1019.1 hPa 0 mm - - -
1787846758 43.89° C 100% 1019.2 hPa 0 mm - - -
1787846612 43.89° C 100% 1019.2 hPa 0 mm - - -
1787846312 47.22° C 100% 1019.2 hPa 0 mm - - -
1787846146 47.22° C 100% 1019.1 hPa 0 mm - - -
1787846012 47.22° C 100% 1019.1 hPa 0 mm - - -

* Rain latest hour (hover to see other rain measurements)
** Current wind speed in m/s (hover to see current wind gust speed)